Data supplied by UK-AIR on 15/6/2011
All Data GMT hour ending  NB:  Upto 28/04/2009 PM10 were measured with a Standard TEOM, from 11/03/2008 PM10 were measured with a VCM TEOM
Status: R =Ratified P=Provisional,P*=As supplied
,,Chesterfield Roadside,,,,,,,,,,,,,,,,,,,,,,,
Date,time,"PM<sub>10</sub> particulate matter (Hourly measured)",status,unit,"Nitric oxide",status,unit,"Nitrogen dioxide",status,unit,"Nitrogen oxides as nitrogen dioxide",status,unit,"Non-volatile PM<sub>10</sub> (Hourly measured)",status,unit,"Non-volatile PM<sub>2.5</sub> (Hourly measured)",status,unit,"PM<sub>2.5</sub> particulate matter (Hourly measured)",status,unit,"Volatile PM<sub>10</sub> (Hourly measured)",status,unit,"Volatile PM2.5 (Hourly measured)",status,unit
 
01-01-2009,01:00,54,R,ugm-3 (VCM),,,,,,,,,,,,,,,,,,,,,,,,
01-01-2009,02:00,39,R,ugm-3 (VCM),20,R,ugm-3,57,R,ugm-3,88,R,ugm-3,,,,,,,,,,,,,,,
01-01-2009,03:00,41,R,ugm-3 (VCM),20,R,ugm-3,55,R,ugm-3,86,R,ugm-3,,,,,,,,,,,,,,,
01-01-2009,04:00,40,R,ugm-3 (VCM),20,R,ugm-3,50,R,ugm-3,80,R,ugm-3,,,,,,,,,,,,,,,
01-01-2009,05:00,47,R,ugm-3 (VCM),33,R,ugm-3,55,R,ugm-3,105,R,ugm-3,,,,,,,,,,,,,,,
01-01-2009,06:00,47,R,ugm-3 (VCM),33,R,ugm-3,53,R,ugm-3,103,R,ugm-3,,,,,,,,,,,,,,,
01-01-2009,07:00,46,R,ugm-3 (VCM),33,R,ugm-3,52,R,ugm-3,101,R,ugm-3,,,,,,,,,,,,,,,
01-01-2009,08:00,50,R,ugm-3 (VCM),46,R,ugm-3,57,R,ugm-3,128,R,ugm-3,,,,,,,,,,,,,,,
01-01-2009,09:00,58,R,ugm-3 (VCM),45,R,ugm-3,57,R,ugm-3,126,R,ugm-3,,,,,,,,,,,,,,,
01-01-2009,10:00,60,R,ugm-3 (VCM),49,R,ugm-3,53,R,ugm-3,128,R,ugm-3,,,,,,,,,,,,,,,
01-01-2009,11:00,61,R,ugm-3 (VCM),55,R,ugm-3,55,R,ugm-3,139,R,ugm-3,,,,,,,,,,,,,,,
01-01-2009,12:00,56,R,ugm-3 (VCM),29,R,ugm-3,46,R,ugm-3,90,R,ugm-3,,,,,,,,,,,,,,,
01-01-2009,13:00,50,R,ugm-3 (VCM),26,R,ugm-3,42,R,ugm-3,82,R,ugm-3,,,,,,,,,,,,,,,
01-01-2009,14:00,54,R,ugm-3 (VCM),28,R,ugm-3,46,R,ugm-3,88,R,ugm-3,,,,,,,,,,,,,,,
01-01-2009,15:00,51,R,ugm-3 (VCM),30,R,ugm-3,52,R,ugm-3,97,R,ugm-3,,,,,,,,,,,,,,,
01-01-2009,16:00,49,R,ugm-3 (VCM),28,R,ugm-3,53,R,ugm-3,96,R,ugm-3,,,,,,,,,,,,,,,
01-01-2009,17:00,63,R,ugm-3 (VCM),40,R,ugm-3,55,R,ugm-3,117,R,ugm-3,,,,,,,,,,,,,,,
01-01-2009,18:00,58,R,ugm-3 (VCM),46,R,ugm-3,55,R,ugm-3,126,R,ugm-3,,,,,,,,,,,,,,,
01-01-2009,19:00,56,R,ugm-3 (VCM),39,R,ugm-3,52,R,ugm-3,111,R,ugm-3,,,,,,,,,,,,,,,
01-01-2009,20:00,66,R,ugm-3 (VCM),49,R,ugm-3,50,R,ugm-3,124,R,ugm-3,,,,,,,,,,,,,,,
01-01-2009,21:00,69,R,ugm-3 (VCM),46,R,ugm-3,52,R,ugm-3,122,R,ugm-3,,,,,,,,,,,,,,,
01-01-2009,22:00,62,R,ugm-3 (VCM),35,R,ugm-3,52,R,ugm-3,105,R,ugm-3,,,,,,,,,,,,,,,
01-01-2009,23:00,54,R,ugm-3 (VCM),18,R,ugm-3,50,R,ugm-3,76,R,ugm-3,,,,,,,,,,,,,,,
01-01-2009,24:00,50,R,ugm-3 (VCM),5,R,ugm-3,50,R,ugm-3,57,R,ugm-3,,,,,,,,,,,,,,,
02-01-2009,01:00,28,R,ugm-3 (VCM),8,R,ugm-3,40,R,ugm-3,52,R,ugm-3,,,,,,,,,,,,,,,
02-01-2009,02:00,41,R,ugm-3 (VCM),6,R,ugm-3,25,R,ugm-3,34,R,ugm-3,,,,,,,,,,,,,,,
02-01-2009,03:00,42,R,ugm-3 (VCM),3,R,ugm-3,23,R,ugm-3,27,R,ugm-3,,,,,,,,,,,,,,,
02-01-2009,04:00,35,R,ugm-3 (VCM),4,R,ugm-3,19,R,ugm-3,25,R,ugm-3,,,,,,,,,,,,,,,
02-01-2009,05:00,37,R,ugm-3 (VCM),10,R,ugm-3,23,R,ugm-3,38,R,ugm-3,,,,,,,,,,,,,,,
02-01-2009,06:00,35,R,ugm-3 (VCM),9,R,ugm-3,25,R,ugm-3,38,R,ugm-3,,,,,,,,,,,,,,,
02-01-2009,07:00,29,R,ugm-3 (VCM),20,R,ugm-3,36,R,ugm-3,67,R,ugm-3,,,,,,,,,,,,,,,
02-01-2009,08:00,24,R,ugm-3 (VCM),24,R,ugm-3,53,R,ugm-3,90,R,ugm-3,,,,,,,,,,,,,,,
02-01-2009,09:00,26,R,ugm-3 (VCM),39,R,ugm-3,63,R,ugm-3,122,R,ugm-3,,,,,,,,,,,,,,,
02-01-2009,10:00,26,R,ugm-3 (VCM),30,R,ugm-3,53,R,ugm-3,99,R,ugm-3,,,,,,,,,,,,,,,
02-01-2009,11:00,24,R,ugm-3 (VCM),21,R,ugm-3,46,R,ugm-3,78,R,ugm-3,,,,,,,,,,,,,,,
02-01-2009,12:00,23,R,ugm-3 (VCM),45,R,ugm-3,59,R,ugm-3,128,R,ugm-3,,,,,,,,,,,,,,,
02-01-2009,13:00,24,R,ugm-3 (VCM),48,R,ugm-3,55,R,ugm-3,128,R,ugm-3,,,,,,,,,,,,,,,
02-01-2009,14:00,17,R,ugm-3 (VCM),35,R,ugm-3,55,R,ugm-3,109,R,ugm-3,,,,,,,,,,,,,,,
02-01-2009,15:00,20,R,ugm-3 (VCM),31,R,ugm-3,52,R,ugm-3,99,R,ugm-3,,,,,,,,,,,,,,,
02-01-2009,16:00,23,R,ugm-3 (VCM),30,R,ugm-3,53,R,ugm-3,99,R,ugm-3,,,,,,,,,,,,,,,
02-01-2009,17:00,19,R,ugm-3 (VCM),24,R,ugm-3,63,R,ugm-3,99,R,ugm-3,,,,,,,,,,,,,,,
02-01-2009,18:00,21,R,ugm-3 (VCM),28,R,ugm-3,71,R,ugm-3,113,R,ugm-3,,,,,,,,,,,,,,,
02-01-2009,19:00,24,R,ugm-3 (VCM),28,R,ugm-3,73,R,ugm-3,115,R,ugm-3,,,,,,,,,,,,,,,
02-01-2009,20:00,21,R,ugm-3 (VCM),26,R,ugm-3,65,R,ugm-3,105,R,ugm-3,,,,,,,,,,,,,,,
02-01-2009,21:00,23,R,ugm-3 (VCM),25,R,ugm-3,67,R,ugm-3,105,R,ugm-3,,,,,,,,,,,,,,,
02-01-2009,22:00,22,R,ugm-3 (VCM),18,R,ugm-3,61,R,ugm-3,88,R,ugm-3,,,,,,,,,,,,,,,
02-01-2009,23:00,22,R,ugm-3 (VCM),14,R,ugm-3,55,R,ugm-3,76,R,ugm-3,,,,,,,,,,,,,,,
02-01-2009,24:00,18,R,ugm-3 (VCM),9,R,ugm-3,31,R,ugm-3,44,R,ugm-3,,,,,,,,,,,,,,,
03-01-2009,01:00,19,R,ugm-3 (VCM),3,R,ugm-3,29,R,ugm-3,32,R,ugm-3,,,,,,,,,,,,,,,
03-01-2009,02:00,18,R,ugm-3 (VCM),6,R,ugm-3,29,R,ugm-3,38,R,ugm-3,,,,,,,,,,,,,,,
03-01-2009,03:00,16,R,ugm-3 (VCM),5,R,ugm-3,23,R,ugm-3,31,R,ugm-3,,,,,,,,,,,,,,,
03-01-2009,04:00,14,R,ugm-3 (VCM),5,R,ugm-3,23,R,ugm-3,31,R,ugm-3,,,,,,,,,,,,,,,
03-01-2009,05:00,16,R,ugm-3 (VCM),6,R,ugm-3,27,R,ugm-3,36,R,ugm-3,,,,,,,,,,,,,,,
03-01-2009,06:00,18,R,ugm-3 (VCM),11,R,ugm-3,42,R,ugm-3,59,R,ugm-3,,,,,,,,,,,,,,,
03-01-2009,07:00,21,R,ugm-3 (VCM),16,R,ugm-3,46,R,ugm-3,71,R,ugm-3,,,,,,,,,,,,,,,
03-01-2009,08:00,16,R,ugm-3 (VCM),36,R,ugm-3,61,R,ugm-3,117,R,ugm-3,,,,,,,,,,,,,,,
03-01-2009,09:00,20,R,ugm-3 (VCM),46,R,ugm-3,59,R,ugm-3,130,R,ugm-3,,,,,,,,,,,,,,,
03-01-2009,10:00,21,R,ugm-3 (VCM),68,R,ugm-3,65,R,ugm-3,168,R,ugm-3,,,,,,,,,,,,,,,
03-01-2009,11:00,9,R,ugm-3 (VCM),5,R,ugm-3,29,R,ugm-3,36,R,ugm-3,,,,,,,,,,,,,,,
03-01-2009,12:00,23,R,ugm-3 (VCM),16,R,ugm-3,29,R,ugm-3,53,R,ugm-3,,,,,,,,,,,,,,,
03-01-2009,13:00,40,R,ugm-3 (VCM),16,R,ugm-3,27,R,ugm-3,52,R,ugm-3,,,,,,,,,,,,,,,
03-01-2009,14:00,30,R,ugm-3 (VCM),13,R,ugm-3,23,R,ugm-3,42,R,ugm-3,,,,,,,,,,,,,,,
03-01-2009,15:00,29,R,ugm-3 (VCM),15,R,ugm-3,25,R,ugm-3,48,R,ugm-3,,,,,,,,,,,,,,,
03-01-2009,16:00,23,R,ugm-3 (VCM),10,R,ugm-3,32,R,ugm-3,48,R,ugm-3,,,,,,,,,,,,,,,
03-01-2009,17:00,31,R,ugm-3 (VCM),16,R,ugm-3,46,R,ugm-3,71,R,ugm-3,,,,,,,,,,,,,,,
03-01-2009,18:00,22,R,ugm-3 (VCM),6,R,ugm-3,29,R,ugm-3,38,R,ugm-3,,,,,,,,,,,,,,,
03-01-2009,19:00,27,R,ugm-3 (VCM),9,R,ugm-3,27,R,ugm-3,40,R,ugm-3,,,,,,,,,,,,,,,
03-01-2009,20:00,38,R,ugm-3 (VCM),20,R,ugm-3,40,R,ugm-3,71,R,ugm-3,,,,,,,,,,,,,,,
03-01-2009,21:00,43,R,ugm-3 (VCM),20,R,ugm-3,46,R,ugm-3,76,R,ugm-3,,,,,,,,,,,,,,,
03-01-2009,22:00,33,R,ugm-3 (VCM),10,R,ugm-3,32,R,ugm-3,48,R,ugm-3,,,,,,,,,,,,,,,
03-01-2009,23:00,30,R,ugm-3 (VCM),13,R,ugm-3,27,R,ugm-3,46,R,ugm-3,,,,,,,,,,,,,,,
03-01-2009,24:00,30,R,ugm-3 (VCM),6,R,ugm-3,23,R,ugm-3,32,R,ugm-3,,,,,,,,,,,,,,,
04-01-2009,01:00,24,R,ugm-3 (VCM),4,R,ugm-3,10,R,ugm-3,15,R,ugm-3,,,,,,,,,,,,,,,
04-01-2009,02:00,20,R,ugm-3 (VCM),4,R,ugm-3,8,R,ugm-3,13,R,ugm-3,,,,,,,,,,,,,,,
04-01-2009,03:00,11,R,ugm-3 (VCM),3,R,ugm-3,2,R,ugm-3,6,R,ugm-3,,,,,,,,,,,,,,,
04-01-2009,04:00,18,R,ugm-3 (VCM),3,R,ugm-3,4,R,ugm-3,8,R,ugm-3,,,,,,,,,,,,,,,
04-01-2009,05:00,13,R,ugm-3 (VCM),4,R,ugm-3,8,R,ugm-3,13,R,ugm-3,,,,,,,,,,,,,,,
04-01-2009,06:00,17,R,ugm-3 (VCM),4,R,ugm-3,4,R,ugm-3,10,R,ugm-3,,,,,,,,,,,,,,,
04-01-2009,07:00,18,R,ugm-3 (VCM),4,R,ugm-3,6,R,ugm-3,11,R,ugm-3,,,,,,,,,,,,,,,
04-01-2009,08:00,25,R,ugm-3 (VCM),6,R,ugm-3,10,R,ugm-3,19,R,ugm-3,,,,,,,,,,,,,,,
04-01-2009,09:00,20,R,ugm-3 (VCM),9,R,ugm-3,11,R,ugm-3,25,R,ugm-3,,,,,,,,,,,,,,,
04-01-2009,10:00,26,R,ugm-3 (VCM),14,R,ugm-3,15,R,ugm-3,36,R,ugm-3,,,,,,,,,,,,,,,
04-01-2009,11:00,33,R,ugm-3 (VCM),21,R,ugm-3,27,R,ugm-3,59,R,ugm-3,,,,,,,,,,,,,,,
04-01-2009,12:00,33,R,ugm-3 (VCM),18,R,ugm-3,27,R,ugm-3,53,R,ugm-3,,,,,,,,,,,,,,,
04-01-2009,13:00,38,R,ugm-3 (VCM),28,R,ugm-3,27,R,ugm-3,69,R,ugm-3,,,,,,,,,,,,,,,
04-01-2009,14:00,38,R,ugm-3 (VCM),29,R,ugm-3,29,R,ugm-3,73,R,ugm-3,,,,,,,,,,,,,,,
04-01-2009,15:00,42,R,ugm-3 (VCM),21,R,ugm-3,27,R,ugm-3,59,R,ugm-3,,,,,,,,,,,,,,,
04-01-2009,16:00,33,R,ugm-3 (VCM),21,R,ugm-3,29,R,ugm-3,61,R,ugm-3,,,,,,,,,,,,,,,
04-01-2009,17:00,35,R,ugm-3 (VCM),13,R,ugm-3,23,R,ugm-3,42,R,ugm-3,,,,,,,,,,,,,,,
04-01-2009,18:00,37,R,ugm-3 (VCM),16,R,ugm-3,29,R,ugm-3,53,R,ugm-3,,,,,,,,,,,,,,,
04-01-2009,19:00,36,R,ugm-3 (VCM),23,R,ugm-3,40,R,ugm-3,74,R,ugm-3,,,,,,,,,,,,,,,
04-01-2009,20:00,37,R,ugm-3 (VCM),18,R,ugm-3,34,R,ugm-3,61,R,ugm-3,,,,,,,,,,,,,,,
04-01-2009,21:00,27,R,ugm-3 (VCM),13,R,ugm-3,31,R,ugm-3,50,R,ugm-3,,,,,,,,,,,,,,,
04-01-2009,22:00,27,R,ugm-3 (VCM),16,R,ugm-3,36,R,ugm-3,61,R,ugm-3,,,,,,,,,,,,,,,
04-01-2009,23:00,24,R,ugm-3 (VCM),9,R,ugm-3,23,R,ugm-3,36,R,ugm-3,,,,,,,,,,,,,,,
04-01-2009,24:00,21,R,ugm-3 (VCM),5,R,ugm-3,15,R,ugm-3,23,R,ugm-3,,,,,,,,,,,,,,,
05-01-2009,01:00,6,R,ugm-3 (VCM),1,R,ugm-3,0,R,ugm-3,2,R,ugm-3,,,,,,,,,,,,,,,
05-01-2009,02:00,14,R,ugm-3 (VCM),3,R,ugm-3,6,R,ugm-3,10,R,ugm-3,,,,,,,,,,,,,,,
05-01-2009,03:00,13,R,ugm-3 (VCM),3,R,ugm-3,8,R,ugm-3,11,R,ugm-3,,,,,,,,,,,,,,,
05-01-2009,04:00,10,R,ugm-3 (VCM),3,R,ugm-3,10,R,ugm-3,13,R,ugm-3,,,,,,,,,,,,,,,
05-01-2009,05:00,12,R,ugm-3 (VCM),3,R,ugm-3,10,R,ugm-3,13,R,ugm-3,,,,,,,,,,,,,,,
05-01-2009,06:00,10,R,ugm-3 (VCM),5,R,ugm-3,10,R,ugm-3,17,R,ugm-3,,,,,,,,,,,,,,,
05-01-2009,07:00,11,R,ugm-3 (VCM),15,R,ugm-3,29,R,ugm-3,52,R,ugm-3,,,,,,,,,,,,,,,
05-01-2009,08:00,13,R,ugm-3 (VCM),15,R,ugm-3,42,R,ugm-3,65,R,ugm-3,,,,,,,,,,,,,,,
05-01-2009,09:00,16,R,ugm-3 (VCM),15,R,ugm-3,50,R,ugm-3,73,R,ugm-3,,,,,,,,,,,,,,,
05-01-2009,10:00,15,R,ugm-3 (VCM),26,R,ugm-3,50,R,ugm-3,90,R,ugm-3,,,,,,,,,,,,,,,
05-01-2009,11:00,18,R,ugm-3 (VCM),20,R,ugm-3,46,R,ugm-3,76,R,ugm-3,,,,,,,,,,,,,,,
05-01-2009,12:00,20,R,ugm-3 (VCM),39,R,ugm-3,50,R,ugm-3,109,R,ugm-3,,,,,,,,,,,,,,,
05-01-2009,13:00,18,R,ugm-3 (VCM),41,R,ugm-3,46,R,ugm-3,109,R,ugm-3,,,,,,,,,,,,,,,
05-01-2009,14:00,38,R,ugm-3 (VCM),33,R,ugm-3,48,R,ugm-3,97,R,ugm-3,,,,,,,,,,,,,,,
05-01-2009,15:00,67,R,ugm-3 (VCM),39,R,ugm-3,53,R,ugm-3,113,R,ugm-3,,,,,,,,,,,,,,,
05-01-2009,16:00,79,R,ugm-3 (VCM),54,R,ugm-3,67,R,ugm-3,149,R,ugm-3,,,,,,,,,,,,,,,
05-01-2009,17:00,69,R,ugm-3 (VCM),51,R,ugm-3,73,R,ugm-3,151,R,ugm-3,,,,,,,,,,,,,,,
05-01-2009,18:00,55,R,ugm-3 (VCM),40,R,ugm-3,73,R,ugm-3,134,R,ugm-3,,,,,,,,,,,,,,,
05-01-2009,19:00,39,R,ugm-3 (VCM),24,R,ugm-3,71,R,ugm-3,107,R,ugm-3,,,,,,,,,,,,,,,
05-01-2009,20:00,40,R,ugm-3 (VCM),38,R,ugm-3,82,R,ugm-3,139,R,ugm-3,,,,,,,,,,,,,,,
05-01-2009,21:00,33,R,ugm-3 (VCM),20,R,ugm-3,73,R,ugm-3,103,R,ugm-3,,,,,,,,,,,,,,,
05-01-2009,22:00,32,R,ugm-3 (VCM),25,R,ugm-3,76,R,ugm-3,115,R,ugm-3,,,,,,,,,,,,,,,
05-01-2009,23:00,29,R,ugm-3 (VCM),28,R,ugm-3,80,R,ugm-3,122,R,ugm-3,,,,,,,,,,,,,,,
05-01-2009,24:00,25,R,ugm-3 (VCM),10,R,ugm-3,61,R,ugm-3,76,R,ugm-3,,,,,,,,,,,,,,,
06-01-2009,01:00,22,R,ugm-3 (VCM),4,R,ugm-3,42,R,ugm-3,48,R,ugm-3,,,,,,,,,,,,,,,
06-01-2009,02:00,18,R,ugm-3 (VCM),5,R,ugm-3,34,R,ugm-3,42,R,ugm-3,,,,,,,,,,,,,,,
06-01-2009,03:00,21,R,ugm-3 (VCM),5,R,ugm-3,38,R,ugm-3,46,R,ugm-3,,,,,,,,,,,,,,,
06-01-2009,04:00,13,R,ugm-3 (VCM),9,R,ugm-3,29,R,ugm-3,42,R,ugm-3,,,,,,,,,,,,,,,
06-01-2009,05:00,8,R,ugm-3 (VCM),13,R,ugm-3,27,R,ugm-3,46,R,ugm-3,,,,,,,,,,,,,,,
06-01-2009,06:00,13,R,ugm-3 (VCM),30,R,ugm-3,38,R,ugm-3,84,R,ugm-3,,,,,,,,,,,,,,,
06-01-2009,07:00,14,R,ugm-3 (VCM),66,R,ugm-3,57,R,ugm-3,159,R,ugm-3,,,,,,,,,,,,,,,
06-01-2009,08:00,22,R,ugm-3 (VCM),110,R,ugm-3,80,R,ugm-3,248,R,ugm-3,,,,,,,,,,,,,,,
06-01-2009,09:00,23,R,ugm-3 (VCM),148,R,ugm-3,94,R,ugm-3,319,R,ugm-3,,,,,,,,,,,,,,,
06-01-2009,10:00,24,R,ugm-3 (VCM),124,R,ugm-3,90,R,ugm-3,279,R,ugm-3,,,,,,,,,,,,,,,
06-01-2009,11:00,40,R,ugm-3 (VCM),103,R,ugm-3,73,R,ugm-3,229,R,ugm-3,,,,,,,,,,,,,,,
06-01-2009,12:00,66,R,ugm-3 (VCM),54,R,ugm-3,50,R,ugm-3,132,R,ugm-3,,,,,,,,,,,,,,,
06-01-2009,13:00,61,R,ugm-3 (VCM),40,R,ugm-3,38,R,ugm-3,99,R,ugm-3,,,,,,,,,,,,,,,
06-01-2009,14:00,45,R,ugm-3 (VCM),23,R,ugm-3,31,R,ugm-3,65,R,ugm-3,,,,,,,,,,,,,,,
06-01-2009,15:00,34,R,ugm-3 (VCM),15,R,ugm-3,25,R,ugm-3,48,R,ugm-3,,,,,,,,,,,,,,,
06-01-2009,16:00,66,R,ugm-3 (VCM),66,R,ugm-3,67,R,ugm-3,168,R,ugm-3,,,,,,,,,,,,,,,
06-01-2009,17:00,90,R,ugm-3 (VCM),71,R,ugm-3,84,R,ugm-3,193,R,ugm-3,,,,,,,,,,,,,,,
06-01-2009,18:00,63,R,ugm-3 (VCM),73,R,ugm-3,97,R,ugm-3,208,R,ugm-3,,,,,,,,,,,,,,,
06-01-2009,19:00,64,R,ugm-3 (VCM),34,R,ugm-3,80,R,ugm-3,132,R,ugm-3,,,,,,,,,,,,,,,
06-01-2009,20:00,40,R,ugm-3 (VCM),15,R,ugm-3,53,R,ugm-3,76,R,ugm-3,,,,,,,,,,,,,,,
06-01-2009,21:00,25,R,ugm-3 (VCM),13,R,ugm-3,36,R,ugm-3,55,R,ugm-3,,,,,,,,,,,,,,,
06-01-2009,22:00,22,R,ugm-3 (VCM),3,R,ugm-3,27,R,ugm-3,31,R,ugm-3,,,,,,,,,,,,,,,
06-01-2009,23:00,20,R,ugm-3 (VCM),3,R,ugm-3,25,R,ugm-3,29,R,ugm-3,,,,,,,,,,,,,,,
06-01-2009,24:00,19,R,ugm-3 (VCM),3,R,ugm-3,27,R,ugm-3,31,R,ugm-3,,,,,,,,,,,,,,,
07-01-2009,01:00,25,R,ugm-3 (VCM),3,R,ugm-3,17,R,ugm-3,21,R,ugm-3,,,,,,,,,,,,,,,
07-01-2009,02:00,18,R,ugm-3 (VCM),3,R,ugm-3,15,R,ugm-3,19,R,ugm-3,,,,,,,,,,,,,,,
07-01-2009,03:00,19,R,ugm-3 (VCM),3,R,ugm-3,11,R,ugm-3,15,R,ugm-3,,,,,,,,,,,,,,,
07-01-2009,04:00,19,R,ugm-3 (VCM),3,R,ugm-3,11,R,ugm-3,15,R,ugm-3,,,,,,,,,,,,,,,
07-01-2009,05:00,10,R,ugm-3 (VCM),4,R,ugm-3,11,R,ugm-3,17,R,ugm-3,,,,,,,,,,,,,,,
07-01-2009,06:00,12,R,ugm-3 (VCM),4,R,ugm-3,11,R,ugm-3,17,R,ugm-3,,,,,,,,,,,,,,,
07-01-2009,07:00,13,R,ugm-3 (VCM),10,R,ugm-3,19,R,ugm-3,34,R,ugm-3,,,,,,,,,,,,,,,
07-01-2009,08:00,20,R,ugm-3 (VCM),21,R,ugm-3,29,R,ugm-3,61,R,ugm-3,,,,,,,,,,,,,,,
07-01-2009,09:00,21,R,ugm-3 (VCM),34,R,ugm-3,42,R,ugm-3,94,R,ugm-3,,,,,,,,,,,,,,,
07-01-2009,10:00,27,R,ugm-3 (VCM),30,R,ugm-3,38,R,ugm-3,84,R,ugm-3,,,,,,,,,,,,,,,
07-01-2009,11:00,25,R,ugm-3 (VCM),25,R,ugm-3,36,R,ugm-3,74,R,ugm-3,,,,,,,,,,,,,,,
07-01-2009,12:00,22,R,ugm-3 (VCM),24,R,ugm-3,36,R,ugm-3,73,R,ugm-3,,,,,,,,,,,,,,,
07-01-2009,13:00,22,R,ugm-3 (VCM),35,R,ugm-3,44,R,ugm-3,97,R,ugm-3,,,,,,,,,,,,,,,
07-01-2009,14:00,22,R,ugm-3 (VCM),34,R,ugm-3,46,R,ugm-3,97,R,ugm-3,,,,,,,,,,,,,,,
07-01-2009,15:00,21,R,ugm-3 (VCM),53,R,ugm-3,61,R,ugm-3,141,R,ugm-3,,,,,,,,,,,,,,,
07-01-2009,16:00,22,R,ugm-3 (VCM),28,R,ugm-3,53,R,ugm-3,96,R,ugm-3,,,,,,,,,,,,,,,
07-01-2009,17:00,25,R,ugm-3 (VCM),20,R,ugm-3,44,R,ugm-3,74,R,ugm-3,,,,,,,,,,,,,,,
07-01-2009,18:00,24,R,ugm-3 (VCM),21,R,ugm-3,44,R,ugm-3,76,R,ugm-3,,,,,,,,,,,,,,,
07-01-2009,19:00,23,R,ugm-3 (VCM),29,R,ugm-3,44,R,ugm-3,88,R,ugm-3,,,,,,,,,,,,,,,
07-01-2009,20:00,22,R,ugm-3 (VCM),30,R,ugm-3,52,R,ugm-3,97,R,ugm-3,,,,,,,,,,,,,,,
07-01-2009,21:00,21,R,ugm-3 (VCM),26,R,ugm-3,52,R,ugm-3,92,R,ugm-3,,,,,,,,,,,,,,,
07-01-2009,22:00,23,R,ugm-3 (VCM),23,R,ugm-3,38,R,ugm-3,73,R,ugm-3,,,,,,,,,,,,,,,
07-01-2009,23:00,19,R,ugm-3 (VCM),15,R,ugm-3,27,R,ugm-3,50,R,ugm-3,,,,,,,,,,,,,,,
07-01-2009,24:00,23,R,ugm-3 (VCM),11,R,ugm-3,21,R,ugm-3,38,R,ugm-3,,,,,,,,,,,,,,,
08-01-2009,01:00,20,R,ugm-3 (VCM),1,R,ugm-3,19,R,ugm-3,21,R,ugm-3,,,,,,,,,,,,,,,
08-01-2009,02:00,18,R,ugm-3 (VCM),1,R,ugm-3,11,R,ugm-3,13,R,ugm-3,,,,,,,,,,,,,,,
08-01-2009,03:00,16,R,ugm-3 (VCM),5,R,ugm-3,15,R,ugm-3,23,R,ugm-3,,,,,,,,,,,,,,,
08-01-2009,04:00,17,R,ugm-3 (VCM),4,R,ugm-3,17,R,ugm-3,23,R,ugm-3,,,,,,,,,,,,,,,
08-01-2009,05:00,21,R,ugm-3 (VCM),11,R,ugm-3,21,R,ugm-3,38,R,ugm-3,,,,,,,,,,,,,,,
08-01-2009,06:00,18,R,ugm-3 (VCM),5,R,ugm-3,19,R,ugm-3,27,R,ugm-3,,,,,,,,,,,,,,,
08-01-2009,07:00,23,R,ugm-3 (VCM),40,R,ugm-3,40,R,ugm-3,101,R,ugm-3,,,,,,,,,,,,,,,
08-01-2009,08:00,18,R,ugm-3 (VCM),14,R,ugm-3,29,R,ugm-3,50,R,ugm-3,,,,,,,,,,,,,,,
08-01-2009,09:00,23,R,ugm-3 (VCM),78,R,ugm-3,61,R,ugm-3,180,R,ugm-3,,,,,,,,,,,,,,,
08-01-2009,10:00,21,R,ugm-3 (VCM),30,R,ugm-3,36,R,ugm-3,82,R,ugm-3,,,,,,,,,,,,,,,
08-01-2009,11:00,21,R,ugm-3 (VCM),33,R,ugm-3,34,R,ugm-3,84,R,ugm-3,,,,,,,,,,,,,,,
08-01-2009,12:00,23,R,ugm-3 (VCM),44,R,ugm-3,38,R,ugm-3,105,R,ugm-3,,,,,,,,,,,,,,,
08-01-2009,13:00,21,R,ugm-3 (VCM),31,R,ugm-3,32,R,ugm-3,80,R,ugm-3,,,,,,,,,,,,,,,
08-01-2009,14:00,25,R,ugm-3 (VCM),40,R,ugm-3,38,R,ugm-3,99,R,ugm-3,,,,,,,,,,,,,,,
08-01-2009,15:00,27,R,ugm-3 (VCM),49,R,ugm-3,38,R,ugm-3,113,R,ugm-3,,,,,,,,,,,,,,,
08-01-2009,16:00,23,R,ugm-3 (VCM),55,R,ugm-3,50,R,ugm-3,134,R,ugm-3,,,,,,,,,,,,,,,
08-01-2009,17:00,20,R,ugm-3 (VCM),46,R,ugm-3,46,R,ugm-3,117,R,ugm-3,,,,,,,,,,,,,,,
08-01-2009,18:00,27,R,ugm-3 (VCM),53,R,ugm-3,55,R,ugm-3,136,R,ugm-3,,,,,,,,,,,,,,,
08-01-2009,19:00,28,R,ugm-3 (VCM),43,R,ugm-3,46,R,ugm-3,111,R,ugm-3,,,,,,,,,,,,,,,
08-01-2009,20:00,28,R,ugm-3 (VCM),24,R,ugm-3,31,R,ugm-3,67,R,ugm-3,,,,,,,,,,,,,,,
08-01-2009,21:00,22,R,ugm-3 (VCM),14,R,ugm-3,23,R,ugm-3,44,R,ugm-3,,,,,,,,,,,,,,,
08-01-2009,22:00,21,R,ugm-3 (VCM),10,R,ugm-3,23,R,ugm-3,38,R,ugm-3,,,,,,,,,,,,,,,
08-01-2009,23:00,18,R,ugm-3 (VCM),6,R,ugm-3,17,R,ugm-3,27,R,ugm-3,,,,,,,,,,,,,,,
08-01-2009,24:00,16,R,ugm-3 (VCM),9,R,ugm-3,17,R,ugm-3,31,R,ugm-3,,,,,,,,,,,,,,,
09-01-2009,01:00,24,R,ugm-3 (VCM),1,R,ugm-3,15,R,ugm-3,17,R,ugm-3,,,,,,,,,,,,,,,
09-01-2009,02:00,23,R,ugm-3 (VCM),1,R,ugm-3,17,R,ugm-3,19,R,ugm-3,,,,,,,,,,,,,,,
09-01-2009,03:00,23,R,ugm-3 (VCM),5,R,ugm-3,25,R,ugm-3,32,R,ugm-3,,,,,,,,,,,,,,,
09-01-2009,04:00,21,R,ugm-3 (VCM),4,R,ugm-3,25,R,ugm-3,31,R,ugm-3,,,,,,,,,,,,,,,
09-01-2009,05:00,20,R,ugm-3 (VCM),10,R,ugm-3,23,R,ugm-3,38,R,ugm-3,,,,,,,,,,,,,,,
09-01-2009,06:00,19,R,ugm-3 (VCM),16,R,ugm-3,27,R,ugm-3,52,R,ugm-3,,,,,,,,,,,,,,,
09-01-2009,07:00,18,R,ugm-3 (VCM),33,R,ugm-3,42,R,ugm-3,92,R,ugm-3,,,,,,,,,,,,,,,
09-01-2009,08:00,20,R,ugm-3 (VCM),46,R,ugm-3,48,R,ugm-3,118,R,ugm-3,,,,,,,,,,,,,,,
09-01-2009,09:00,27,R,ugm-3 (VCM),98,R,ugm-3,74,R,ugm-3,223,R,ugm-3,,,,,,,,,,,,,,,
09-01-2009,10:00,26,R,ugm-3 (VCM),65,R,ugm-3,55,R,ugm-3,155,R,ugm-3,,,,,,,,,,,,,,,
09-01-2009,11:00,,,,,,,,,,,,,,,,,,,,,,,,,,,
09-01-2009,12:00,,,,,,,,,,,,,,,,,,,,,,,,,,,
09-01-2009,13:00,35,R,ugm-3 (VCM),45,R,ugm-3,36,R,ugm-3,105,R,ugm-3,,,,,,,,,,,,,,,
09-01-2009,14:00,37,R,ugm-3 (VCM),60,R,ugm-3,53,R,ugm-3,145,R,ugm-3,,,,,,,,,,,,,,,
09-01-2009,15:00,41,R,ugm-3 (VCM),64,R,ugm-3,65,R,ugm-3,162,R,ugm-3,,,,,,,,,,,,,,,
09-01-2009,16:00,43,R,ugm-3 (VCM),96,R,ugm-3,84,R,ugm-3,231,R,ugm-3,,,,,,,,,,,,,,,
09-01-2009,17:00,54,R,ugm-3 (VCM),143,R,ugm-3,94,R,ugm-3,311,R,ugm-3,,,,,,,,,,,,,,,
09-01-2009,18:00,60,R,ugm-3 (VCM),131,R,ugm-3,88,R,ugm-3,288,R,ugm-3,,,,,,,,,,,,,,,
09-01-2009,19:00,58,R,ugm-3 (VCM),131,R,ugm-3,88,R,ugm-3,288,R,ugm-3,,,,,,,,,,,,,,,
09-01-2009,20:00,58,R,ugm-3 (VCM),133,R,ugm-3,84,R,ugm-3,287,R,ugm-3,,,,,,,,,,,,,,,
09-01-2009,21:00,56,R,ugm-3 (VCM),86,R,ugm-3,71,R,ugm-3,202,R,ugm-3,,,,,,,,,,,,,,,
09-01-2009,22:00,48,R,ugm-3 (VCM),68,R,ugm-3,73,R,ugm-3,176,R,ugm-3,,,,,,,,,,,,,,,
09-01-2009,23:00,40,R,ugm-3 (VCM),21,R,ugm-3,65,R,ugm-3,97,R,ugm-3,,,,,,,,,,,,,,,
09-01-2009,24:00,35,R,ugm-3 (VCM),9,R,ugm-3,59,R,ugm-3,73,R,ugm-3,,,,,,,,,,,,,,,
10-01-2009,01:00,32,R,ugm-3 (VCM),10,R,ugm-3,48,R,ugm-3,63,R,ugm-3,,,,,,,,,,,,,,,
10-01-2009,02:00,37,R,ugm-3 (VCM),4,R,ugm-3,42,R,ugm-3,48,R,ugm-3,,,,,,,,,,,,,,,
10-01-2009,03:00,42,R,ugm-3 (VCM),4,R,ugm-3,55,R,ugm-3,61,R,ugm-3,,,,,,,,,,,,,,,
10-01-2009,04:00,40,R,ugm-3 (VCM),1,R,ugm-3,59,R,ugm-3,61,R,ugm-3,,,,,,,,,,,,,,,
10-01-2009,05:00,32,R,ugm-3 (VCM),4,R,ugm-3,57,R,ugm-3,63,R,ugm-3,,,,,,,,,,,,,,,
10-01-2009,06:00,37,R,ugm-3 (VCM),15,R,ugm-3,61,R,ugm-3,84,R,ugm-3,,,,,,,,,,,,,,,
10-01-2009,07:00,33,R,ugm-3 (VCM),16,R,ugm-3,61,R,ugm-3,86,R,ugm-3,,,,,,,,,,,,,,,
10-01-2009,08:00,34,R,ugm-3 (VCM),15,R,ugm-3,52,R,ugm-3,74,R,ugm-3,,,,,,,,,,,,,,,
10-01-2009,09:00,36,R,ugm-3 (VCM),18,R,ugm-3,44,R,ugm-3,71,R,ugm-3,,,,,,,,,,,,,,,
10-01-2009,10:00,37,R,ugm-3 (VCM),23,R,ugm-3,38,R,ugm-3,73,R,ugm-3,,,,,,,,,,,,,,,
10-01-2009,11:00,39,R,ugm-3 (VCM),21,R,ugm-3,38,R,ugm-3,71,R,ugm-3,,,,,,,,,,,,,,,
10-01-2009,12:00,39,R,ugm-3 (VCM),34,R,ugm-3,48,R,ugm-3,99,R,ugm-3,,,,,,,,,,,,,,,
10-01-2009,13:00,42,R,ugm-3 (VCM),43,R,ugm-3,48,R,ugm-3,113,R,ugm-3,,,,,,,,,,,,,,,
10-01-2009,14:00,44,R,ugm-3 (VCM),24,R,ugm-3,44,R,ugm-3,80,R,ugm-3,,,,,,,,,,,,,,,
10-01-2009,15:00,43,R,ugm-3 (VCM),16,R,ugm-3,48,R,ugm-3,73,R,ugm-3,,,,,,,,,,,,,,,
10-01-2009,16:00,42,R,ugm-3 (VCM),21,R,ugm-3,50,R,ugm-3,82,R,ugm-3,,,,,,,,,,,,,,,
10-01-2009,17:00,45,R,ugm-3 (VCM),39,R,ugm-3,65,R,ugm-3,124,R,ugm-3,,,,,,,,,,,,,,,
10-01-2009,18:00,42,R,ugm-3 (VCM),14,R,ugm-3,52,R,ugm-3,73,R,ugm-3,,,,,,,,,,,,,,,
10-01-2009,19:00,39,R,ugm-3 (VCM),11,R,ugm-3,48,R,ugm-3,65,R,ugm-3,,,,,,,,,,,,,,,
10-01-2009,20:00,46,R,ugm-3 (VCM),26,R,ugm-3,57,R,ugm-3,97,R,ugm-3,,,,,,,,,,,,,,,
10-01-2009,21:00,41,R,ugm-3 (VCM),6,R,ugm-3,40,R,ugm-3,50,R,ugm-3,,,,,,,,,,,,,,,
10-01-2009,22:00,39,R,ugm-3 (VCM),3,R,ugm-3,32,R,ugm-3,36,R,ugm-3,,,,,,,,,,,,,,,
10-01-2009,23:00,39,R,ugm-3 (VCM),3,R,ugm-3,32,R,ugm-3,36,R,ugm-3,,,,,,,,,,,,,,,
10-01-2009,24:00,36,R,ugm-3 (VCM),1,R,ugm-3,27,R,ugm-3,29,R,ugm-3,,,,,,,,,,,,,,,
11-01-2009,01:00,26,R,ugm-3 (VCM),1,R,ugm-3,13,R,ugm-3,15,R,ugm-3,,,,,,,,,,,,,,,
11-01-2009,02:00,31,R,ugm-3 (VCM),3,R,ugm-3,10,R,ugm-3,13,R,ugm-3,,,,,,,,,,,,,,,
11-01-2009,03:00,29,R,ugm-3 (VCM),3,R,ugm-3,11,R,ugm-3,15,R,ugm-3,,,,,,,,,,,,,,,
11-01-2009,04:00,27,R,ugm-3 (VCM),3,R,ugm-3,11,R,ugm-3,15,R,ugm-3,,,,,,,,,,,,,,,
11-01-2009,05:00,23,R,ugm-3 (VCM),3,R,ugm-3,10,R,ugm-3,13,R,ugm-3,,,,,,,,,,,,,,,
11-01-2009,06:00,19,R,ugm-3 (VCM),3,R,ugm-3,10,R,ugm-3,13,R,ugm-3,,,,,,,,,,,,,,,
11-01-2009,07:00,19,R,ugm-3 (VCM),1,R,ugm-3,11,R,ugm-3,13,R,ugm-3,,,,,,,,,,,,,,,
11-01-2009,08:00,21,R,ugm-3 (VCM),4,R,ugm-3,11,R,ugm-3,17,R,ugm-3,,,,,,,,,,,,,,,
11-01-2009,09:00,20,R,ugm-3 (VCM),4,R,ugm-3,11,R,ugm-3,17,R,ugm-3,,,,,,,,,,,,,,,
11-01-2009,10:00,20,R,ugm-3 (VCM),5,R,ugm-3,11,R,ugm-3,19,R,ugm-3,,,,,,,,,,,,,,,
11-01-2009,11:00,28,R,ugm-3 (VCM),6,R,ugm-3,15,R,ugm-3,25,R,ugm-3,,,,,,,,,,,,,,,
11-01-2009,12:00,19,R,ugm-3 (VCM),8,R,ugm-3,13,R,ugm-3,25,R,ugm-3,,,,,,,,,,,,,,,
11-01-2009,13:00,20,R,ugm-3 (VCM),6,R,ugm-3,13,R,ugm-3,23,R,ugm-3,,,,,,,,,,,,,,,
11-01-2009,14:00,20,R,ugm-3 (VCM),8,R,ugm-3,15,R,ugm-3,27,R,ugm-3,,,,,,,,,,,,,,,
11-01-2009,15:00,20,R,ugm-3 (VCM),5,R,ugm-3,17,R,ugm-3,25,R,ugm-3,,,,,,,,,,,,,,,
11-01-2009,16:00,21,R,ugm-3 (VCM),6,R,ugm-3,17,R,ugm-3,27,R,ugm-3,,,,,,,,,,,,,,,
11-01-2009,17:00,20,R,ugm-3 (VCM),5,R,ugm-3,13,R,ugm-3,21,R,ugm-3,,,,,,,,,,,,,,,
11-01-2009,18:00,24,R,ugm-3 (VCM),4,R,ugm-3,13,R,ugm-3,19,R,ugm-3,,,,,,,,,,,,,,,
11-01-2009,19:00,23,R,ugm-3 (VCM),4,R,ugm-3,11,R,ugm-3,17,R,ugm-3,,,,,,,,,,,,,,,
11-01-2009,20:00,20,R,ugm-3 (VCM),3,R,ugm-3,11,R,ugm-3,15,R,ugm-3,,,,,,,,,,,,,,,
11-01-2009,21:00,20,R,ugm-3 (VCM),4,R,ugm-3,8,R,ugm-3,13,R,ugm-3,,,,,,,,,,,,,,,
11-01-2009,22:00,17,R,ugm-3 (VCM),3,R,ugm-3,6,R,ugm-3,10,R,ugm-3,,,,,,,,,,,,,,,
11-01-2009,23:00,19,R,ugm-3 (VCM),3,R,ugm-3,4,R,ugm-3,8,R,ugm-3,,,,,,,,,,,,,,,
11-01-2009,24:00,16,R,ugm-3 (VCM),3,R,ugm-3,0,R,ugm-3,4,R,ugm-3,,,,,,,,,,,,,,,
12-01-2009,01:00,9,R,ugm-3 (VCM),1,R,ugm-3,2,R,ugm-3,4,R,ugm-3,,,,,,,,,,,,,,,
12-01-2009,02:00,18,R,ugm-3 (VCM),1,R,ugm-3,2,R,ugm-3,4,R,ugm-3,,,,,,,,,,,,,,,
12-01-2009,03:00,16,R,ugm-3 (VCM),1,R,ugm-3,2,R,ugm-3,4,R,ugm-3,,,,,,,,,,,,,,,
12-01-2009,04:00,15,R,ugm-3 (VCM),1,R,ugm-3,0,R,ugm-3,2,R,ugm-3,,,,,,,,,,,,,,,
12-01-2009,05:00,10,R,ugm-3 (VCM),1,R,ugm-3,2,R,ugm-3,4,R,ugm-3,,,,,,,,,,,,,,,
12-01-2009,06:00,8,R,ugm-3 (VCM),3,R,ugm-3,2,R,ugm-3,6,R,ugm-3,,,,,,,,,,,,,,,
12-01-2009,07:00,14,R,ugm-3 (VCM),6,R,ugm-3,6,R,ugm-3,15,R,ugm-3,,,,,,,,,,,,,,,
12-01-2009,08:00,11,R,ugm-3 (VCM),8,R,ugm-3,11,R,ugm-3,23,R,ugm-3,,,,,,,,,,,,,,,
12-01-2009,09:00,11,R,ugm-3 (VCM),15,R,ugm-3,17,R,ugm-3,40,R,ugm-3,,,,,,,,,,,,,,,
12-01-2009,10:00,11,R,ugm-3 (VCM),15,R,ugm-3,21,R,ugm-3,44,R,ugm-3,,,,,,,,,,,,,,,
12-01-2009,11:00,12,R,ugm-3 (VCM),14,R,ugm-3,21,R,ugm-3,42,R,ugm-3,,,,,,,,,,,,,,,
12-01-2009,12:00,12,R,ugm-3 (VCM),15,R,ugm-3,19,R,ugm-3,42,R,ugm-3,,,,,,,,,,,,,,,
12-01-2009,13:00,14,R,ugm-3 (VCM),20,R,ugm-3,21,R,ugm-3,52,R,ugm-3,,,,,,,,,,,,,,,
12-01-2009,14:00,17,R,ugm-3 (VCM),49,R,ugm-3,50,R,ugm-3,124,R,ugm-3,,,,,,,,,,,,,,,
12-01-2009,15:00,18,R,ugm-3 (VCM),58,R,ugm-3,50,R,ugm-3,138,R,ugm-3,,,,,,,,,,,,,,,
12-01-2009,16:00,13,R,ugm-3 (VCM),60,R,ugm-3,50,R,ugm-3,141,R,ugm-3,,,,,,,,,,,,,,,
12-01-2009,17:00,12,R,ugm-3 (VCM),35,R,ugm-3,48,R,ugm-3,101,R,ugm-3,,,,,,,,,,,,,,,
12-01-2009,18:00,16,R,ugm-3 (VCM),40,R,ugm-3,50,R,ugm-3,111,R,ugm-3,,,,,,,,,,,,,,,
12-01-2009,19:00,12,R,ugm-3 (VCM),18,R,ugm-3,34,R,ugm-3,61,R,ugm-3,,,,,,,,,,,,,,,
12-01-2009,20:00,17,R,ugm-3 (VCM),23,R,ugm-3,32,R,ugm-3,67,R,ugm-3,,,,,,,,,,,,,,,
12-01-2009,21:00,16,R,ugm-3 (VCM),16,R,ugm-3,31,R,ugm-3,55,R,ugm-3,,,,,,,,,,,,,,,